QPF
0.03 0.06 0.04 0.01 0.01 0.00 0.00 0.00 0.00 0.00 0.00 0.00 0.00 0.00 0.00 0.00 0.00 0.00 0.00 0.00 0.00 0.00 0.00 0.00 0.00 0.00 0.00 0.00 0.01 0.02 0.04 0.06 0.08 0.09 0.07 0.08 0.07 0.05 0.05 0.04 0.03 0.02 0.02 0.02
0.02 0.04 0.03 0.00 0.00 0.00 0.00 0.00 0.00 0.00 0.00 0.00 0.00 0.00 0.00 0.00 0.00 0.00 0.00 0.00 0.00 0.00 0.00 0.00 0.00 0.00 0.00 0.00 0.01 0.01 0.01 0.03 0.04 0.06 0.06 0.06 0.05 0.05 0.05 0.06 0.06 0.04 0.03 0.03
0.02 0.02 0.02 0.01 0.01 0.00 0.00 0.00 0.00 0.01 0.01 0.01 0.00 0.00 0.00 0.00 0.00 0.00 0.00 0.00 0.00 0.00 0.00 0.00 0.00 0.00 0.00 0.00 0.00 0.01 0.01 0.01 0.01 0.03 0.05 0.07 0.08 0.07 0.05 0.04 0.05 0.05 0.04 0.03
0.02 0.02 0.02 0.03 0.01 0.01 0.00 0.00 0.00 0.00 0.01 0.01 0.01 0.00 0.00 0.00 0.00 0.00 0.00 0.00 0.00 0.00 0.00 0.00 0.00 0.00 0.00 0.00 0.00 0.00 0.01 0.01 0.01 0.01 0.02 0.04 0.09 0.11 0.07 0.03 0.03 0.04 0.06 0.06
0.02 0.02 0.02 0.03 0.01 0.01 0.00 0.00 0.00 0.01 0.01 0.01 0.01 0.01 0.00 0.00 0.00 0.00 0.00 0.00 0.00 0.00 0.00 0.00 0.00 0.00 0.00 0.00 0.00 0.00 0.00 0.01 0.01 0.01 0.01 0.02 0.05 0.08 0.09 0.06 0.02 0.02 0.04 0.05
0.02 0.02 0.02 0.02 0.01 0.01 0.00 0.01 0.01 0.01 0.02 0.02 0.00 0.00 0.00 0.00 0.00 0.00 0.00 0.00 0.00 0.00 0.00 0.00 0.00 0.00 0.00 0.00 0.00 0.00 0.01 0.01 0.01 0.01 0.01 0.01 0.02 0.05 0.08 0.10 0.07 0.03 0.03 0.03
0.02 0.03 0.03 0.03 0.03 0.03 0.02 0.02 0.04 0.04 0.03 0.02 0.00 0.00 0.00 0.00 0.00 0.00 0.00 0.00 0.00 0.00 0.00 0.00 0.00 0.00 0.00 0.00 0.00 0.00 0.00 0.01 0.01 0.01 0.02 0.02 0.01 0.02 0.04 0.09 0.10 0.06 0.04 0.03
0.02 0.02 0.02 0.02 0.03 0.03 0.03 0.02 0.02 0.02 0.01 0.00 0.00 0.00 0.01 0.01 0.01 0.00 0.00 0.00 0.00 0.00 0.00 0.00 0.00 0.00 0.00 0.00 0.00 0.00 0.00 0.00 0.01 0.01 0.02 0.03 0.03 0.02 0.03 0.04 0.07 0.08 0.05 0.03
0.02 0.01 0.02 0.01 0.02 0.02 0.02 0.02 0.01 0.02 0.01 0.00 0.00 0.00 0.01 0.00 0.00 0.00 0.00 0.00 0.00 0.00 0.00 0.00 0.00 0.00 0.00 0.00 0.00 0.01 0.00 0.00 0.01 0.01 0.02 0.02 0.03 0.04 0.05 0.05 0.04 0.08 0.07 0.05
0.02 0.02 0.02 0.02 0.02 0.02 0.02 0.02 0.02 0.03 0.03 0.01 0.00 0.00 0.01 0.00 0.00 0.00 0.00 0.00 0.00 0.00 0.00 0.00 0.00 0.00 0.01 0.00 0.00 0.01 0.01 0.01 0.01 0.01 0.01 0.02 0.02 0.03 0.05 0.07 0.06 0.06 0.08 0.08
0.02 0.02 0.02 0.02 0.02 0.02 0.01 0.02 0.02 0.03 0.02 0.02 0.01 0.00 0.01 0.00 0.00 0.00 0.00 0.00 0.00 0.00 0.00 0.00 0.00 0.00 0.00 0.00 0.00 0.01 0.01 0.01 0.01 0.01 0.01 0.02 0.02 0.02 0.02 0.03 0.05 0.06 0.07 0.09
0.02 0.02 0.02 0.01 0.01 0.01 0.02 0.01 0.01 0.02 0.02 0.01 0.01 0.00 0.00 0.00 0.00 0.00 0.00 0.00 0.00 0.00 0.00 0.00 0.00 0.00 0.00 0.00 0.00 0.00 0.01 0.01 0.01 0.01 0.01 0.01 0.02 0.02 0.02 0.02 0.02 0.03 0.04 0.06
0.02 0.03 0.03 0.02 0.02 0.02 0.03 0.03 0.02 0.02 0.02 0.02 0.01 0.00 0.01 0.00 0.00 0.00 0.00 0.00 0.00 0.00 0.00 0.00 0.00 0.00 0.00 0.00 0.00 0.01 0.01 0.01 0.01 0.01 0.01 0.02 0.02 0.02 0.02 0.01 0.01 0.02 0.03 0.03
0.02 0.02 0.01 0.01 0.01 0.01 0.01 0.01 0.01 0.03 0.03 0.01 0.01 0.00 0.01 0.01 0.01 0.01 0.01 0.00 0.00 0.00 0.00 0.00 0.00 0.00 0.00 0.00 0.01 0.01 0.01 0.01 0.01 0.01 0.01 0.02 0.02 0.02 0.02 0.02 0.02 0.02 0.02 0.03
0.02 0.02 0.01 0.00 0.00 0.00 0.01 0.01 0.01 0.02 0.02 0.01 0.00 0.00 0.01 0.01 0.01 0.01 0.00 0.00 0.00 0.00 0.00 0.00 0.00 0.00 0.00 0.01 0.01 0.01 0.01 0.01 0.01 0.01 0.01 0.01 0.02 0.02 0.02 0.03 0.03 0.02 0.03 0.03
0.03 0.02 0.01 0.00 0.00 0.00 0.00 0.00 0.01 0.01 0.01 0.01 0.00 0.00 0.01 0.01 0.00 0.01 0.00 0.00 0.00 0.01 0.01 0.01 0.00 0.00 0.01 0.01 0.01 0.01 0.01 0.01 0.01 0.01 0.01 0.01 0.01 0.01 0.02 0.02 0.02 0.02 0.02 0.02
0.02 0.02 0.02 0.01 0.00 0.01 0.01 0.00 0.00 0.00 0.00 0.00 0.00 0.00 0.01 0.00 0.00 0.00 0.00 0.01 0.01 0.01 0.01 0.00 0.00 0.00 0.00 0.00 0.00 0.01 0.01 0.01 0.01 0.01 0.01 0.01 0.01 0.01 0.01 0.01 0.01 0.01 0.01 0.01
0.02 0.02 0.02 0.02 0.01 0.01 0.00 0.00 0.00 0.00 0.00 0.00 0.00 0.00 0.00 0.00 0.00 0.00 0.00 0.01 0.01 0.01 0.01 0.00 0.00 0.00 0.00 0.00 0.00 0.01 0.01 0.01 0.01 0.01 0.01 0.01 0.01 0.01 0.01 0.00 0.00 0.00 0.00 0.00
0.01 0.03 0.04 0.02 0.01 0.00 0.00 0.00 0.00 0.00 0.00 0.00 0.00 0.00 0.01 0.00 0.00 0.00 0.00 0.00 0.00 0.00 0.00 0.00 0.00 0.00 0.00 0.00 0.00 0.00 0.00 0.00 0.00 0.00 0.00 0.00 0.01 0.01 0.01 0.01 0.00 0.00 0.00 0.00
0.01 0.02 0.04 0.03 0.02 0.01 0.00 0.00 0.00 0.00 0.00 0.01 0.01 0.01 0.01 0.01 0.00 0.00 0.00 0.00 0.00 0.00 0.00 0.00 0.00 0.00 0.00 0.00 0.00 0.00 0.00 0.00 0.00 0.00 0.00 0.00 0.01 0.01 0.01 0.01 0.01 0.00 0.00 0.00
0.02 0.03 0.04 0.03 0.02 0.00 0.00 0.00 0.01 0.01 0.01 0.01 0.01 0.01 0.01 0.00 0.00 0.00 0.00 0.00 0.00 0.00 0.00 0.00 0.00 0.00 0.00 0.00 0.00 0.01 0.00 0.00 0.00 0.00 0.00 0.00 0.01 0.01 0.01 0.01 0.01 0.01 0.00 0.00
0.01 0.01 0.01 0.02 0.02 0.01 0.00 0.00 0.01 0.01 0.01 0.01 0.00 0.00 0.00 0.00 0.00 0.00 0.00 0.00 0.00 0.00 0.00 0.00 0.00 0.00 0.01 0.01 0.01 0.01 0.00 0.00 0.00 0.01 0.01 0.00 0.00 0.01 0.01 0.01 0.01 0.01 0.01 0.01
0.01 0.01 0.01 0.01 0.01 0.01 0.00 0.00 0.01 0.01 0.00 0.00 0.00 0.00 0.00 0.00 0.00 0.00 0.00 0.00 0.00 0.00 0.00 0.00 0.00 0.00 0.00 0.00 0.00 0.00 0.00 0.00 0.00 0.00 0.00 0.00 0.01 0.01 0.01 0.01 0.01 0.01 0.01 0.02
0.02 0.01 0.02 0.02 0.01 0.01 0.01 0.01 0.01 0.01 0.00 0.00 0.00 0.00 0.00 0.00 0.00 0.00 0.00 0.00 0.00 0.00 0.00 0.00 0.00 0.00 0.00 0.00 0.00 0.00 0.00 0.00 0.00 0.01 0.01 0.01 0.01 0.01 0.01 0.01 0.01 0.01 0.01 0.02
0.01 0.01 0.02 0.01 0.01 0.01 0.00 0.00 0.00 0.00 0.00 0.00 0.00 0.00 0.00 0.00 0.00 0.00 0.00 0.00 0.00 0.00 0.00 0.00 0.00 0.00 0.00 0.00 0.00 0.00 0.00 0.00 0.00 0.01 0.01 0.01 0.01 0.01 0.01 0.01 0.01 0.02 0.02 0.02
0.00 0.01 0.01 0.01 0.01 0.00 0.00 0.00 0.00 0.00 0.00 0.00 0.00 0.00 0.00 0.00 0.00 0.00 0.00 0.00 0.00 0.00 0.00 0.00 0.00 0.00 0.00 0.00 0.00 0.00 0.00 0.00 0.01 0.01 0.01 0.01 0.01 0.01 0.01 0.01 0.01 0.01 0.02 0.02
MSLP
1019.72 1020.08 1020.47 1020.90 1021.33 1021.72 1022.03 1022.20 1022.19 1021.98 1021.59 1021.03 1020.33 1019.57 1018.78 1018.02 1017.30 1016.65 1016.03 1015.43 1014.83 1014.20 1013.54 1012.88 1012.26 1011.72 1011.33 1011.12 1011.13 1011.36 1011.79 1012.36 1013.00 1013.64 1014.20 1014.63 1014.90 1015.00 1014.95 1014.78 1014.52 1014.23 1013.94 1013.67
1020.23 1020.58 1020.98 1021.45 1021.95 1022.46 1022.91 1023.24 1023.38 1023.29 1022.94 1022.35 1021.54 1020.60 1019.57 1018.55 1017.58 1016.70 1015.92 1015.21 1014.56 1013.94 1013.32 1012.70 1012.11 1011.59 1011.19 1010.96 1010.94 1011.15 1011.56 1012.14 1012.82 1013.52 1014.16 1014.68 1015.03 1015.20 1015.20 1015.06 1014.84 1014.57 1014.30 1014.04
1020.68 1021.00 1021.40 1021.90 1022.49 1023.13 1023.74 1024.24 1024.54 1024.56 1024.27 1023.65 1022.73 1021.60 1020.33 1019.03 1017.80 1016.70 1015.74 1014.94 1014.26 1013.67 1013.12 1012.59 1012.08 1011.62 1011.25 1011.02 1010.97 1011.14 1011.52 1012.08 1012.76 1013.48 1014.16 1014.74 1015.15 1015.38 1015.43 1015.34 1015.16 1014.92 1014.67 1014.44
1021.16 1021.43 1021.82 1022.35 1023.01 1023.76 1024.52 1025.19 1025.64 1025.78 1025.53 1024.88 1023.86 1022.54 1021.04 1019.49 1018.01 1016.70 1015.59 1014.71 1014.03 1013.49 1013.04 1012.63 1012.23 1011.85 1011.53 1011.31 1011.24 1011.36 1011.69 1012.19 1012.83 1013.53 1014.22 1014.82 1015.27 1015.55 1015.65 1015.62 1015.48 1015.28 1015.06 1014.85
1021.77 1021.98 1022.34 1022.87 1023.58 1024.42 1025.31 1026.11 1026.68 1026.91 1026.70 1026.02 1024.89 1023.42 1021.71 1019.94 1018.25 1016.76 1015.54 1014.60 1013.94 1013.47 1013.13 1012.85 1012.58 1012.30 1012.03 1011.82 1011.72 1011.78 1012.02 1012.45 1013.02 1013.66 1014.32 1014.92 1015.39 1015.71 1015.86 1015.88 1015.79 1015.63 1015.44 1015.25
1022.57 1022.72 1023.02 1023.54 1024.26 1025.15 1026.11 1027.00 1027.65 1027.93 1027.73 1027.02 1025.81 1024.20 1022.33 1020.38 1018.53 1016.91 1015.60 1014.65 1014.02 1013.63 1013.41 1013.25 1013.09 1012.90 1012.69 1012.48 1012.34 1012.33 1012.48 1012.80 1013.27 1013.84 1014.46 1015.03 1015.51 1015.86 1016.06 1016.12 1016.07 1015.96 1015.81 1015.63
1023.58 1023.65 1023.88 1024.35 1025.06 1025.95 1026.93 1027.84 1028.52 1028.81 1028.61 1027.85 1026.56 1024.85 1022.87 1020.81 1018.85 1017.15 1015.80 1014.85 1014.26 1013.95 1013.83 1013.78 1013.72 1013.59 1013.41 1013.20 1013.01 1012.92 1012.96 1013.18 1013.55 1014.04 1014.59 1015.14 1015.62 1015.99 1016.22 1016.33 1016.33 1016.25 1016.13 1015.98
1024.72 1024.71 1024.88 1025.28 1025.93 1026.78 1027.72 1028.61 1029.25 1029.51 1029.26 1028.46 1027.12 1025.35 1023.31 1021.19 1019.18 1017.45 1016.11 1015.17 1014.63 1014.38 1014.34 1014.36 1014.36 1014.28 1014.11 1013.87 1013.64 1013.46 1013.41 1013.52 1013.80 1014.21 1014.71 1015.23 1015.70 1016.09 1016.35 1016.50 1016.54 1016.49 1016.40 1016.26
1025.88 1025.81 1025.91 1026.24 1026.81 1027.57 1028.43 1029.22 1029.79 1029.97 1029.66 1028.81 1027.44 1025.65 1023.60 1021.48 1019.49 1017.79 1016.47 1015.57 1015.07 1014.87 1014.86 1014.92 1014.95 1014.88 1014.70 1014.44 1014.14 1013.90 1013.77 1013.80 1014.00 1014.34 1014.79 1015.28 1015.75 1016.15 1016.43 1016.61 1016.67 1016.66 1016.59 1016.47
1026.92 1026.82 1026.86 1027.12 1027.59 1028.24 1028.97 1029.63 1030.07 1030.15 1029.76 1028.86 1027.48 1025.71 1023.71 1021.66 1019.74 1018.11 1016.85 1016.01 1015.54 1015.36 1015.37 1015.43 1015.45 1015.36 1015.16 1014.86 1014.52 1014.22 1014.03 1013.99 1014.13 1014.43 1014.84 1015.30 1015.76 1016.16 1016.46 1016.65 1016.74 1016.74 1016.68 1016.58
1027.73 1027.62 1027.63 1027.82 1028.20 1028.71 1029.28 1029.78 1030.06 1030.01 1029.54 1028.60 1027.24 1025.54 1023.64 1021.70 1019.91 1018.39 1017.22 1016.44 1016.01 1015.84 1015.83 1015.87 1015.85 1015.73 1015.49 1015.16 1014.78 1014.45 1014.21 1014.14 1014.23 1014.48 1014.86 1015.30 1015.74 1016.13 1016.42 1016.62 1016.71 1016.72 1016.68 1016.60
1028.27 1028.18 1028.19 1028.32 1028.59 1028.96 1029.34 1029.65 1029.76 1029.57 1029.01 1028.05 1026.74 1025.14 1023.38 1021.62 1020.00 1018.63 1017.58 1016.88 1016.48 1016.31 1016.28 1016.27 1016.21 1016.05 1015.77 1015.40 1015.01 1014.65 1014.39 1014.28 1014.34 1014.56 1014.89 1015.29 1015.70 1016.06 1016.34 1016.52 1016.61 1016.62 1016.58 1016.51
1028.57 1028.54 1028.55 1028.63 1028.78 1028.99 1029.18 1029.28 1029.20 1028.86 1028.22 1027.26 1026.02 1024.56 1022.99 1021.44 1020.03 1018.84 1017.94 1017.32 1016.96 1016.80 1016.73 1016.68 1016.58 1016.37 1016.06 1015.67 1015.26 1014.89 1014.62 1014.48 1014.51 1014.68 1014.96 1015.31 1015.66 1015.98 1016.22 1016.37 1016.45 1016.45 1016.41 1016.35
1028.75 1028.77 1028.78 1028.80 1028.82 1028.84 1028.82 1028.70 1028.42 1027.95 1027.24 1026.29 1025.14 1023.85 1022.51 1021.20 1020.02 1019.04 1018.29 1017.78 1017.48 1017.32 1017.23 1017.14 1016.99 1016.75 1016.42 1016.02 1015.61 1015.23 1014.94 1014.78 1014.76 1014.87 1015.08 1015.36 1015.64 1015.89 1016.08 1016.19 1016.23 1016.22 1016.18 1016.13
1028.92 1028.98 1028.97 1028.90 1028.77 1028.59 1028.33 1027.98 1027.52 1026.90 1026.14 1025.23 1024.20 1023.10 1021.99 1020.94 1020.01 1019.24 1018.67 1018.27 1018.02 1017.87 1017.76 1017.64 1017.46 1017.20 1016.86 1016.46 1016.05 1015.67 1015.37 1015.17 1015.10 1015.13 1015.26 1015.43 1015.62 1015.79 1015.91 1015.97 1015.99 1015.96 1015.92 1015.87
1029.18 1029.24 1029.17 1028.98 1028.67 1028.26 1027.77 1027.19 1026.54 1025.81 1025.01 1024.15 1023.26 1022.36 1021.50 1020.71 1020.03 1019.47 1019.05 1018.76 1018.56 1018.43 1018.31 1018.16 1017.96 1017.69 1017.35 1016.96 1016.56 1016.18 1015.85 1015.62 1015.48 1015.42 1015.45 1015.51 1015.60 1015.67 1015.72 1015.73 1015.71 1015.66 1015.61 1015.57
1029.54 1029.57 1029.40 1029.05 1028.54 1027.90 1027.17 1026.38 1025.55 1024.73 1023.92 1023.14 1022.40 1021.71 1021.09 1020.55 1020.09 1019.73 1019.45 1019.24 1019.08 1018.95 1018.81 1018.64 1018.42 1018.14 1017.81 1017.44 1017.05 1016.67 1016.33 1016.05 1015.83 1015.69 1015.60 1015.55 1015.52 1015.50 1015.48 1015.43 1015.38 1015.33 1015.27 1015.23
1029.95 1029.90 1029.60 1029.07 1028.34 1027.47 1026.52 1025.55 1024.61 1023.73 1022.95 1022.27 1021.69 1021.21 1020.81 1020.49 1020.22 1020.01 1019.83 1019.67 1019.52 1019.37 1019.20 1019.00 1018.76 1018.47 1018.15 1017.80 1017.42 1017.05 1016.69 1016.37 1016.08 1015.84 1015.65 1015.49 1015.36 1015.25 1015.15 1015.07 1014.99 1014.93 1014.87 1014.83
1030.26 1030.11 1029.66 1028.94 1028.02 1026.95 1025.83 1024.73 1023.72 1022.84 1022.12 1021.57 1021.16 1020.88 1020.68 1020.54 1020.42 1020.30 1020.17 1020.02 1019.84 1019.64 1019.41 1019.17 1018.90 1018.60 1018.29 1017.95 1017.60 1017.23 1016.86 1016.50 1016.15 1015.83 1015.54 1015.28 1015.06 1014.88 1014.73 1014.61 1014.51 1014.45 1014.40 1014.36
1030.31 1030.04 1029.45 1028.58 1027.50 1026.30 1025.07 1023.92 1022.91 1022.09 1021.48 1021.07 1020.84 1020.74 1020.70 1020.70 1020.67 1020.59 1020.46 1020.26 1020.02 1019.73 1019.43 1019.12 1018.80 1018.49 1018.18 1017.86 1017.52 1017.17 1016.79 1016.41 1016.01 1015.62 1015.26 1014.92 1014.62 1014.38 1014.18 1014.04 1013.94 1013.87 1013.83 1013.79
1029.97 1029.60 1028.90 1027.92 1026.75 1025.49 1024.25 1023.12 1022.18 1021.48 1021.02 1020.78 1020.72 1020.77 1020.86 1020.94 1020.95 1020.86 1020.67 1020.39 1020.03 1019.64 1019.23 1018.84 1018.47 1018.13 1017.82 1017.51 1017.19 1016.85 1016.49 1016.08 1015.66 1015.23 1014.80 1014.41 1014.05 1013.76 1013.54 1013.37 1013.27 1013.20 1013.17 1013.14
1029.18 1028.75 1027.99 1026.97 1025.80 1024.56 1023.39 1022.37 1021.57 1021.03 1020.74 1020.67 1020.76 1020.93 1021.11 1021.22 1021.21 1021.07 1020.78 1020.38 1019.90 1019.38 1018.86 1018.37 1017.95 1017.57 1017.25 1016.95 1016.65 1016.34 1015.98 1015.58 1015.14 1014.68 1014.22 1013.78 1013.39 1013.07 1012.82 1012.64 1012.53 1012.47 1012.44 1012.42
1027.99 1027.54 1026.78 1025.81 1024.70 1023.58 1022.55 1021.70 1021.09 1020.73 1020.62 1020.71 1020.92 1021.17 1021.38 1021.48 1021.42 1021.18 1020.78 1020.24 1019.62 1018.97 1018.34 1017.77 1017.28 1016.88 1016.54 1016.25 1015.98 1015.68 1015.34 1014.95 1014.51 1014.04 1013.57 1013.11 1012.70 1012.35 1012.08 1011.90 1011.78 1011.72 1011.68 1011.66
1026.55 1026.13 1025.44 1024.56 1023.60 1022.66 1021.82 1021.17 1020.76 1020.59 1020.64 1020.84 1021.13 1021.41 1021.61 1021.65 1021.50 1021.16 1020.63 1019.96 1019.21 1018.44 1017.72 1017.08 1016.54 1016.11 1015.77 1015.49 1015.23 1014.96 1014.64 1014.27 1013.85 1013.38 1012.90 1012.44 1012.02 1011.66 1011.38 1011.18 1011.05 1010.98 1010.93 1010.90
1025.07 1024.71 1024.13 1023.41 1022.63 1021.90 1021.28 1020.83 1020.61 1020.59 1020.75 1021.01 1021.32 1021.58 1021.72 1021.68 1021.42 1020.96 1020.31 1019.53 1018.68 1017.83 1017.04 1016.35 1015.78 1015.34 1014.99 1014.72 1014.48 1014.23 1013.93 1013.59 1013.18 1012.74 1012.27 1011.81 1011.39 1011.03 1010.74 1010.53 1010.38 1010.29 1010.22 1010.17
1023.78 1023.49 1023.05 1022.50 1021.93 1021.40 1020.98 1020.71 1020.62 1020.70 1020.90 1021.16 1021.43 1021.61 1021.65 1021.50 1021.13 1020.56 1019.82 1018.96 1018.05 1017.15 1016.33 1015.61 1015.03 1014.58 1014.24 1013.97 1013.74 1013.51 1013.24 1012.91 1012.54 1012.12 1011.68 1011.24 1010.83 1010.47 1010.18 1009.95 1009.78 1009.66 1009.57 1009.49
Thickness
5553 5545 5543 5547 5552 5556 5555 5552 5554 5558 5563 5562 5560 5563 5568 5570 5569 5568 5568 5570 5573 5577 5580 5582 5584 5586 5588 5590 5592 5594 5595 5597 5599 5599 5600 5602 5603 5605 5605 5606 5607 5607 5608 5609
5535 5535 5544 5546 5546 5547 5545 5543 5542 5546 5552 5551 5549 5552 5559 5560 5561 5562 5561 5561 5563 5565 5568 5571 5572 5575 5576 5578 5580 5582 5584 5585 5587 5588 5589 5591 5592 5593 5594 5595 5596 5596 5597 5597
5530 5534 5540 5539 5535 5535 5533 5531 5531 5532 5535 5536 5535 5540 5547 5551 5552 5554 5554 5554 5554 5556 5557 5559 5560 5562 5563 5565 5567 5570 5572 5574 5575 5577 5578 5580 5581 5582 5583 5583 5584 5585 5586 5586
5520 5527 5530 5527 5526 5526 5522 5527 5526 5523 5516 5511 5519 5514 5535 5539 5541 5543 5542 5541 5543 5546 5547 5548 5549 5550 5551 5553 5555 5557 5559 5561 5563 5565 5566 5568 5569 5570 5571 5573 5574 5575 5575 5575
5512 5517 5518 5517 5518 5518 5514 5517 5514 5510 5502 5494 5499 5494 5518 5525 5529 5533 5534 5533 5534 5536 5537 5538 5538 5539 5540 5541 5543 5545 5547 5549 5551 5553 5554 5556 5557 5558 5559 5561 5562 5564 5564 5565
5504 5509 5510 5511 5511 5511 5507 5501 5494 5485 5481 5482 5489 5486 5506 5511 5522 5528 5528 5526 5526 5527 5527 5527 5527 5527 5528 5529 5530 5532 5534 5537 5539 5541 5543 5544 5545 5547 5548 5549 5551 5552 5553 5554
5491 5496 5500 5501 5497 5496 5494 5481 5469 5466 5459 5471 5483 5483 5499 5514 5517 5520 5521 5518 5516 5516 5515 5515 5515 5515 5516 5516 5518 5520 5522 5524 5526 5528 5530 5532 5533 5535 5537 5538 5538 5540 5542 5543
5474 5478 5489 5491 5490 5486 5482 5479 5468 5462 5457 5463 5472 5475 5497 5506 5508 5510 5510 5508 5505 5504 5505 5505 5505 5504 5504 5505 5506 5507 5509 5511 5513 5515 5517 5519 5521 5523 5525 5526 5527 5529 5530 5532
5465 5470 5480 5483 5484 5483 5475 5468 5469 5454 5446 5449 5461 5472 5490 5497 5499 5499 5498 5495 5492 5493 5493 5492 5492 5492 5493 5494 5495 5496 5498 5500 5501 5503 5505 5506 5508 5510 5512 5514 5515 5517 5518 5520
5461 5454 5464 5470 5474 5473 5471 5463 5450 5447 5446 5452 5460 5466 5481 5486 5487 5487 5484 5483 5482 5481 5480 5480 5480 5480 5481 5482 5483 5485 5487 5488 5489 5491 5492 5494 5495 5497 5499 5501 5503 5504 5506 5507
5453 5445 5447 5455 5457 5459 5458 5454 5448 5439 5437 5439 5444 5465 5482 5479 5478 5476 5474 5473 5471 5471 5470 5469 5468 5468 5469 5469 5471 5472 5474 5475 5477 5478 5480 5481 5482 5484 5486 5488 5490 5492 5493 5495
5443 5433 5429 5438 5446 5450 5452 5450 5441 5438 5432 5425 5425 5452 5472 5467 5467 5466 5464 5462 5460 5459 5458 5456 5456 5456 5457 5457 5459 5459 5461 5462 5464 5465 5467 5468 5470 5472 5473 5475 5477 5479 5481 5482
5434 5425 5423 5429 5432 5433 5436 5438 5432 5426 5419 5411 5420 5448 5460 5455 5455 5455 5452 5449 5447 5447 5446 5444 5444 5444 5444 5445 5446 5447 5448 5449 5451 5453 5454 5455 5457 5458 5460 5462 5464 5466 5467 5469
5431 5418 5421 5430 5431 5426 5425 5428 5424 5421 5415 5409 5419 5439 5448 5446 5444 5442 5440 5438 5436 5436 5436 5434 5433 5432 5432 5433 5434 5435 5436 5437 5439 5440 5441 5442 5444 5446 5447 5449 5451 5452 5454 5455
5418 5408 5408 5412 5419 5420 5421 5423 5418 5416 5417 5417 5426 5427 5440 5437 5434 5431 5429 5428 5427 5426 5425 5425 5423 5421 5421 5421 5422 5423 5424 5426 5427 5428 5429 5430 5432 5434 5436 5437 5438 5439 5440 5442
5401 5398 5398 5402 5408 5410 5413 5418 5416 5415 5414 5412 5416 5421 5429 5426 5422 5420 5418 5418 5418 5416 5415 5415 5414 5413 5412 5411 5411 5412 5413 5415 5416 5417 5418 5420 5421 5422 5424 5425 5426 5426 5427 5429
5388 5388 5389 5391 5395 5400 5403 5411 5412 5411 5410 5409 5413 5422 5418 5414 5414 5412 5411 5409 5408 5407 5407 5405 5404 5404 5402 5402 5402 5402 5403 5404 5405 5407 5408 5409 5410 5411 5412 5413 5414 5414 5415 5416
5381 5378 5375 5377 5382 5387 5413 5407 5407 5407 5407 5405 5408 5410 5408 5407 5406 5404 5402 5400 5399 5399 5398 5397 5395 5394 5393 5393 5392 5393 5393 5394 5395 5396 5397 5398 5399 5400 5401 5402 5403 5403 5404 5404
5379 5375 5369 5366 5370 5384 5402 5402 5398 5396 5399 5400 5399 5400 5399 5396 5396 5396 5397 5395 5393 5391 5389 5388 5387 5386 5385 5384 5384 5384 5384 5384 5385 5386 5387 5388 5388 5389 5391 5391 5391 5392 5392 5393
5367 5366 5364 5361 5369 5377 5401 5395 5391 5392 5392 5395 5391 5391 5388 5387 5386 5390 5389 5386 5384 5382 5381 5379 5378 5377 5376 5376 5376 5375 5376 5376 5376 5377 5378 5378 5379 5379 5380 5380 5380 5381 5381 5382
5361 5358 5358 5360 5362 5376 5386 5383 5385 5383 5391 5387 5383 5382 5379 5378 5380 5381 5378 5376 5375 5374 5372 5371 5370 5369 5369 5368 5368 5367 5367 5368 5369 5369 5369 5369 5370 5369 5369 5370 5370 5370 5370 5371
5358 5354 5352 5353 5357 5373 5378 5375 5375 5379 5378 5376 5374 5371 5369 5368 5368 5369 5368 5367 5366 5364 5364 5363 5362 5361 5361 5360 5360 5360 5360 5360 5360 5360 5360 5360 5360 5360 5360 5359 5360 5360 5360 5360
5356 5360 5359 5361 5370 5372 5368 5369 5370 5368 5367 5367 5365 5363 5361 5359 5358 5359 5359 5358 5357 5356 5355 5354 5353 5353 5352 5352 5352 5352 5352 5352 5352 5352 5352 5351 5351 5350 5350 5349 5350 5350 5350 5350
5350 5350 5350 5350 5358 5361 5361 5360 5360 5359 5358 5358 5357 5355 5353 5351 5350 5350 5349 5348 5348 5348 5347 5346 5345 5344 5345 5345 5345 5345 5345 5345 5345 5344 5344 5343 5342 5342 5341 5341 5341 5341 5341 5341
5351 5343 5343 5345 5352 5354 5358 5355 5354 5352 5350 5349 5348 5347 5345 5344 5343 5341 5340 5340 5339 5340 5339 5338 5337 5338 5338 5338 5338 5338 5337 5337 5337 5336 5336 5335 5334 5333 5332 5332 5332 5332 5333 5333
5343 5342 5343 5350 5352 5348 5351 5350 5348 5344 5342 5340 5339 5338 5338 5337 5335 5334 5332 5332 5332 5332 5331 5331 5330 5330 5330 5330 5330 5330 5330 5330 5329 5329 5329 5328 5326 5325 5325 5324 5325 5325 5326 5328